星链-31016 (STARLINK-31016 )

导读

STARLINK-31016是美国SpaceX公司星链星座的成员,于2023年12月8日发射升空。作为低轨通信卫星,它采用平板设计与氪工质霍尔推进器,配备Ku/Ka波段通信载荷和自主避撞系统,旨在为全球偏远地区提供高速低延迟宽带互联网服务。卫星设计寿命5-7年,退役后会主动离轨坠入大气层烧毁,减少空间碎片影响。

Basic Information
目录编号:
58548
目录名称:
STARLINK-31016
国际标识:
2023-192T
轨道中心:
EARTH
卫星名称:
星链-31016
卫星全名:
星链-31016 (STARLINK-31016 )
卫星状态:
在轨 (已飞行1001 天)
发射日期:
2023-12-08 UTC
国别 :
美国 (US)
星等 :
--
Orbit Information
数据来源 国际轨道数据 AOE轨道数据
星历时间 2026-09-04T00:15:38+0800
13小时前
查看轨道信息
2026-09-03T08:00:00+0800
1天前
查看轨道信息
半长轴 6840.851km 6840.846km
偏心率 0.0001113 0.0001757
轨道倾角 53.158° 53.155°
近地点辐角 84.111° 77.099°
升交点赤经 314.015° 317.181°
平近点角 276.002° 138.424°
近地点 461.952km 461.507km
远地点 463.476km 463.911km
周期 93.848分钟 93.848分钟
每日圈数 15.343966 15.343981
Detailed Information
固有亮度:
5
最大亮度:
0.3
卫星平台:
Starlink v2.0 mini
覆盖范围:
全球
运营商:
太空探索技术公司
运营商所在国:
美国
制造商(研发单位):
太空探索技术公司
制造商所在国:
美国
使用方式:
暂无
Satellite Introduction
星链(Starlink)计划是由太空探索技术公司(SpaceX)提出的一个巨型低轨卫星互联网星座项目,计划在2019年至2024年间在太空搭建由约1.2万颗卫星组成的“星链”网络,其中1584颗将部署在地球上空550千米处的近地轨道,并从2020年开始工作。该卫星仍在工作。
2D Orbit Map
3D Orbit Map
Orbit Altitude Analysis Chart
Orbit Inclination Analysis Chart
Orbit Comprehensive Analysis Chart
View Comprehensive Chart
Conjunction Data List
Event ID Objects TCA Miss Dist (km) Collision Risk Probability Collision Risk Index (CRI) Action
CDM_260905-215603-279105-854821
SEEDS (32791)
2026-09-05T
21:56:04+0000
0.324 km
远距离
3.514635E-4 高风险 0.86
CDM_260905-193503-279105-854821
SEEDS (32791)
2026-09-05T
19:35:17+0000
0.594 km
远距离
9.408476E-5 中风险 0.74
CDM_260905-101005-854806-343921
2026-09-05T
10:10:57+0000
0.788 km
远距离
3.682507E-5 中风险 0.66
CDM_260903-002005-854806-662223
2026-09-03T
00:20:58+0000
1.008 km
极远距离
1.66433E-5 中风险 0.59
CDM_260903-085605-854806-662222
2026-09-03T
08:56:49+0000
2.024 km
极远距离
1.847657E-6 低风险 0.4
CDM_260905-083705-854806-343921
2026-09-05T
08:37:10+0000
2.040 km
极远距离
1.763453E-6 低风险 0.4
CDM_260903-103005-854806-662222
2026-09-03T
10:30:36+0000
2.240 km
极远距离
1.472358E-6 低风险 0.38
CDM_260903-015405-854806-662224
2026-09-03T
01:54:45+0000
2.594 km
极远距离
1.125574E-6 低风险 0.36
CDM_260903-234505-301905-854821
2026-09-03T
23:45:01+0000
2.457 km
极远距离
9.600711E-7 极低风险 0.35
CDM_260903-225805-301905-854821
2026-09-03T
22:58:06+0000
3.000 km
极远距离
7.3073E-7 极低风险 0.32